Flag for Poland Weather past 2 weeks in Kraków, Poland

32 °F

Snow flurries. Ice fog.

Feels Like: 27 °F
Forecast: 28 / 34 °F
Wind: 5 mph from Northeast

Location: Krakow Airport

Current Time: Nov 27, 2015 at 4:41:22 AM

Latest Report: Nov 27, 2015 at 4:00 AM

Visibility: 3 mi

Pressure: 30.09 "Hg

Humidity: 87%

Dew point: 28 °F

Location of KrakówLocation

Historic Weather in Kraków — Graph


Kraków temperature yesterday

Maximum temperature yesterday: 30 °F (at 6:30 PM)
Minimum temperature yesterday: 23 °F (at 5:00 AM)
Average temperature yesterday: 27 °F

Past Weeks' High & Low Weather Summary

High59 °F (Nov 18, 8:30 AM)100% (Nov 12, 4:30 AM)30.36 "Hg (Nov 12, 4:30 AM)
Low19 °F (Nov 25, 4:00 AM)50% (Nov 14, 1:30 PM)29.36 "Hg (Nov 21, 12:30 AM)
Average41 °F86%29.90 "Hg
* Reported Nov 12 3:00 AM — Nov 27 3:00 AM, Kraków, Weather by CustomWeather, © 2015

Note: Actual official high and low records may vary slightly from our data, if they occured in-between our weather recording intervals... More about our weather records


Kraków weather history for previous 24 hours

Time TempWeatherWind HumidityBarometerVisibility
3:00 AM
Fri, Nov 27
32 °FSnow flurries. Ice fog.6 mph87%30.09 "Hg3 mi
2:30 AM32 °FIce fog.6 mph87%30.09 "Hg3 mi
2:00 AM32 °FIce fog.5 mph87%30.09 "Hg3 mi
1:30 AM32 °FIce fog.7 mph87%30.09 "Hg3 mi
1:00 AM32 °FIce fog.5 mph87%30.09 "Hg2 mi
12:30 AM32 °FIce fog.1 mph87%30.09 "Hg2 mi
12:00 AM32 °FIce fog.3 mph87%30.07 "Hg3 mi
11:00 PM
Thu, Nov 26
30 °FIce fog.1 mph93%30.07 "Hg2 mi
10:30 PM30 °FIce fog.1 mph93%30.07 "Hg2 mi
10:00 PM30 °FIce fog.1 mph93%30.07 "Hg2 mi
9:30 PM30 °FIce fog.1 mph93%30.07 "Hg2 mi
9:00 PM30 °FIce fog.2 mph86%30.04 "Hg2 mi
8:30 PM30 °FIce fog.2 mph86%30.04 "Hg2 mi
8:00 PM30 °FIce fog.2 mph86%30.04 "Hg2 mi
7:30 PM30 °FIce fog.2 mph86%30.01 "Hg2 mi
7:00 PM28 °FPartly cloudy.1 mph93%30.01 "Hg4 mi
6:30 PM30 °FPassing clouds.1 mph86%30.01 "Hg5 mi
6:00 PM28 °FPassing clouds.1 mph93%29.98 "Hg4 mi
5:30 PM28 °FPassing clouds.2 mph93%29.98 "Hg4 mi
5:00 PM28 °FPassing clouds.2 mph93%29.98 "Hg5 mi
4:30 PM28 °FPassing clouds.3 mph93%29.95 "Hg4 mi
4:00 PM28 °FPassing clouds.2 mph93%29.95 "Hg4 mi
3:30 PM28 °FPartly sunny.3 mph93%29.95 "Hg4 mi
3:00 PM28 °FPartly sunny.7 mph93%29.92 "Hg4 mi
2:30 PM28 °FIce fog.6 mph93%29.92 "Hg3 mi
2:00 PM28 °FIce fog.7 mph86%29.92 "Hg2 mi
1:30 PM28 °FIce fog.7 mph86%29.89 "Hg2 mi
1:00 PM27 °FIce fog.7 mph93%29.89 "Hg2 mi
12:30 PM27 °FLight snow. Ice fog.7 mph93%29.89 "Hg1 mi
12:00 PM27 °FIce fog.7 mph93%29.86 "Hg1 mi
11:30 AM27 °FIce fog.5 mph93%29.86 "Hg1 mi
11:00 AM27 °FIce fog.8 mph93%29.86 "Hg1 mi
10:30 AM27 °FIce fog.6 mph93%29.86 "Hg1 mi
10:00 AM28 °FIce fog.6 mph93%29.86 "Hg1 mi
9:30 AM27 °FIce fog.5 mph93%29.83 "Hg1 mi
9:00 AM27 °FIce fog.5 mph93%29.83 "Hg1 mi
8:30 AM25 °FIce fog.2 mph93%29.83 "Hg1 mi
8:00 AM23 °FIce fog.2 mph93%29.83 "Hg1 mi
7:30 AM23 °FIce fog.3 mph93%29.80 "Hg1 mi
7:00 AM23 °FIce fog.5 mph100%29.80 "Hg1 mi
6:30 AM23 °FIce fog.3 mph93%29.80 "Hg1 mi
6:00 AM23 °FIce fog.1 mph93%29.77 "Hg2 mi
5:30 AM23 °FIce fog.1 mph100%29.77 "Hg1 mi
5:00 AM23 °FIce fog.1 mph93%29.77 "Hg1 mi
4:00 AM25 °FIce fog.2 mph93%29.77 "Hg2 mi
Weather by CustomWeather, © 2015

See weather overviewHow to use our weather pages